[[{"header":{"parameterUnit":"m.s-1","parameterCategory":1,"la1":30.2991,"la2":30.254,"lo1":-89.0895,"lo2":-89.0444,"dy":0.0017,"dx":0.0017,"nx":28,"ny":28,"refTime":"2025-06-08T21:00:00:Z","depth":0,"parameterNumber":2,"parameterNumberName":"U-component_of_WINDS"},"data":[0,0,0,0,0,0,0,0,0,0,0,0,0,0,0,0,0,0,0,0,0,0,0,0,0,0,0,0,0,0,0,0,0,0,0,0,0,0,0,0,0,0,0,0,0,0,0,0,0,0,0,0,0,0,0,0,0,0,3.4739,3.474,0,3.4822,3.4823,3.4824,3.4789,3.4787,3.4785,3.4783,3.4873,3.4878,3.4882,0,0,0,0,0,0,0,0,0,0,0,0,0,3.4559,3.4562,3.4739,3.474,3.4741,3.4822,3.4823,3.4824,3.4789,3.4787,3.4784,3.4782,3.4872,3.4877,3.4882,0,0,0,0,0,0,0,0,0,0,0,0,0,3.4639,3.4563,3.4739,3.4733,3.4734,3.4821,3.4823,3.4824,3.479,3.4787,3.4784,3.4781,3.487,3.4877,3.4883,3.4982,0,0,3.4902,3.4905,0,0,0,0,0,0,0,0,3.4634,3.4645,3.4733,3.4734,3.4734,3.4792,3.4792,3.4877,3.4791,3.4769,3.4783,3.478,3.4849,3.4857,3.4879,3.4987,3.499,3.4903,3.4907,3.491,3.4911,0,0,0,0,0,0,0,3.4629,3.4642,3.4772,3.4735,3.4735,3.4729,3.4737,3.4808,3.4825,3.477,3.4768,3.4778,3.4849,3.4873,3.4881,3.4992,3.4903,3.4908,3.4912,3.4915,3.5188,3.5191,0,0,0,0,0,0,3.4622,3.4637,3.4769,3.4774,3.4676,3.4735,3.4744,3.4777,3.4824,3.4828,3.478,3.4776,3.4864,3.4874,3.4884,3.5005,3.491,3.4916,3.4919,3.5185,3.5189,3.5193,0,0,0,0,0,0,3.4618,3.4634,3.4766,3.4705,3.4721,3.4741,3.4778,3.478,3.4804,3.4831,3.4835,3.4802,3.4862,3.4875,3.4958,3.5008,3.4918,3.4924,3.5181,3.5186,3.5191,3.5248,0,0,0,0,0,0,3.4613,3.4633,3.4669,3.4706,3.4725,3.4837,3.4781,3.4784,3.4814,3.4809,3.4852,3.4857,3.486,3.4949,3.4965,3.5015,3.4929,3.5176,3.5183,3.5189,3.5242,3.5254,3.5265,0,0,0,0,0,3.4607,3.4683,3.4671,3.4687,3.477,3.484,3.485,3.4851,3.4818,3.4856,3.4875,3.4855,3.5,3.4958,3.4975,3.5028,3.5173,3.5181,3.5189,3.5236,3.5252,3.5265,0,0,0,0,0,0,3.4652,3.4687,3.4675,3.4764,3.4799,3.4833,3.4881,3.4867,3.4914,3.4907,3.4909,3.4919,3.5005,3.5025,3.4978,3.5129,3.5082,3.5094,3.5112,3.5127,3.5139,3.5132,3.4935,0,0,0,0,0,3.4672,3.4724,3.4752,3.4829,3.4847,3.4861,3.4891,3.4889,3.4926,3.4941,3.4965,3.5004,3.5058,3.5094,3.5145,3.5245,3.5255,3.529,3.5302,3.5311,3.5321,3.5378,3.5395,3.5218,3.5218,3.5218,0,0,3.4715,3.474,3.4773,3.4838,3.4865,3.4921,3.4874,3.4934,3.4976,3.4951,3.5031,3.505,3.5093,3.5186,3.5228,3.5205,3.5373,3.5321,3.5328,3.5333,3.5388,3.5404,3.5419,3.5223,3.5222,3.5221,0,0,3.482,3.4844,3.4911,3.4939,3.498,3.4989,3.5006,3.5043,3.5054,3.5134,3.5117,3.5169,3.5261,3.5294,3.5322,3.5443,3.5428,3.546,3.5522,3.5577,3.5591,3.5603,3.5648,3.5664,3.547,3.547,3.547,0,3.4868,3.4949,3.4948,3.501,3.504,3.5019,3.5089,3.5117,3.5173,3.5196,3.5169,3.5287,3.5314,3.5415,3.5445,3.5468,3.5489,3.5455,3.5588,3.5601,3.5612,3.5655,3.5672,3.5474,3.5474,3.5473,3.5473,0,3.5007,3.5064,3.5114,3.5168,3.5204,3.527,3.528,3.5318,3.5314,3.5327,3.541,3.5443,3.5501,3.5525,3.5522,3.5627,3.5611,3.5587,3.554,3.5633,3.5673,3.5689,3.5479,3.5478,3.5477,3.5476,0,0,3.5142,3.5195,3.5214,3.5239,3.5284,3.5329,3.5395,3.5451,3.5484,3.5525,3.5582,3.5662,3.564,3.5673,3.5673,3.5722,3.5818,3.5691,3.5693,3.5715,3.5938,3.5956,3.5975,3.5808,3.5811,3.5814,3.5934,0,3.5252,3.5366,3.5368,3.5473,3.5527,3.551,3.5568,3.5603,3.5618,3.5668,3.5685,3.5743,3.5708,3.5728,3.5775,3.5796,3.5863,3.5787,3.5864,3.5866,3.5853,3.5996,3.6015,3.6127,3.595,3.5953,3.5955,0,3.5395,3.5439,3.555,3.5589,3.5612,3.5664,3.5716,3.5764,3.5805,3.5812,3.585,3.5844,3.5914,3.5865,3.5964,3.5913,3.5945,3.596,3.5964,3.5972,3.5916,3.6008,3.6163,3.618,3.5979,3.5977,3.5975,0,3.5484,3.5571,3.5649,3.5671,3.5719,3.5756,3.5778,3.5816,3.585,3.5897,3.592,3.5975,3.6006,3.605,3.606,3.6023,3.616,3.6111,3.617,3.617,3.6199,3.6198,3.6362,3.6219,3.6219,3.6219,3.6218,0,3.5606,3.5675,3.569,3.5738,3.5816,3.5819,3.5896,3.5916,3.595,3.6004,3.5993,3.6043,3.6053,3.6107,3.6116,3.6198,3.6212,3.6221,3.6223,3.6223,3.6222,3.6244,3.6236,3.6223,3.6222,3.6221,3.622,0,3.5718,3.5731,3.5815,3.5853,3.5865,3.592,3.5954,3.6002,3.6016,3.6084,3.6101,3.6124,3.6187,3.6201,3.6277,3.6283,3.638,3.6374,3.6366,3.6365,3.6424,3.6418,3.6609,3.6634,3.6474,3.6476,3.6477,0,3.5796,3.5848,3.5893,3.5927,3.595,3.6006,3.6041,3.6047,3.6085,3.6137,3.6179,3.624,3.629,3.6392,3.6417,3.6476,3.6471,3.6534,3.648,3.6479,3.6474,3.647,3.6477,3.6544,3.6546,3.6547,3.6549,0,3.5933,3.5937,3.5987,3.604,3.6082,3.6125,3.6165,3.6195,3.6207,3.625,3.6314,3.6352,3.643,3.6492,3.6551,3.6576,3.6566,3.6566,3.6582,3.6583,3.6576,3.6581,3.6394,3.6561,3.656,3.6559,3.6558,3.6558,3.603,3.6077,3.6116,3.6173,3.6204,3.6243,3.629,3.631,3.6363,3.6425,3.6427,3.6497,3.654,3.6618,3.6646,3.6703,3.6684,3.6708,3.6714,3.672,3.6726,3.6567,3.6714,3.6714,3.6713,3.6713,3.6713,0,3.6168,3.6192,3.6244,3.6302,3.6347,3.6332,3.6377,3.6417,3.6478,3.6518,3.6567,3.6642,3.6703,3.6734,3.6795,3.6834,3.6831,3.685,3.6848,3.6854,3.6739,3.6719,3.6852,3.6852,3.6852,3.6852,3.6852,3.6852,3.6244,3.6323,3.6332,3.6428,3.6452,3.652,3.6547,3.6584,3.6616,3.6699,3.6749,3.6768,3.6806,3.687,3.6926,3.6933,3.6957,3.6979,3.6984,3.6876,3.6862,3.6848,3.6829,3.6983,3.6984,3.7094,3.7095,3.7096]},{"header":{"parameterUnit":"m.s-1","parameterCategory":1,"la1":30.2991,"la2":30.254,"lo1":-89.0895,"lo2":-89.0444,"dy":0.0017,"dx":0.0017,"nx":28,"ny":28,"refTime":"2025-06-08T21:00:00:Z","depth":0,"parameterNumber":3,"parameterNumberName":"V-component_of_WINDS"},"data":[0,0,0,0,0,0,0,0,0,0,0,0,0,0,0,0,0,0,0,0,0,0,0,0,0,0,0,0,0,0,0,0,0,0,0,0,0,0,0,0,0,0,0,0,0,0,0,0,0,0,0,0,0,0,0,0,0,0,3.0272,3.0272,0,3.035,3.0351,3.0352,3.0361,3.036,3.036,3.0359,3.0435,3.0438,3.0441,0,0,0,0,0,0,0,0,0,0,0,0,0,3.0123,3.0126,3.0272,3.0273,3.0274,3.035,3.0351,3.0352,3.0361,3.036,3.0359,3.0359,3.0435,3.0438,3.0441,0,0,0,0,0,0,0,0,0,0,0,0,0,3.0193,3.0127,3.0271,3.0287,3.029,3.035,3.0351,3.0352,3.0361,3.036,3.0359,3.0358,3.0433,3.0437,3.0442,3.049,0,0,3.0454,3.0456,0,0,0,0,0,0,0,0,3.0189,3.0199,3.0284,3.0286,3.0289,3.0345,3.0327,3.0398,3.0362,3.0334,3.0359,3.0358,3.0406,3.0412,3.0429,3.0494,3.0497,3.0454,3.0457,3.0459,3.046,0,0,0,0,0,0,0,3.0184,3.0195,3.0303,3.0285,3.0288,3.0289,3.0297,3.034,3.0375,3.0336,3.0337,3.0347,3.0407,3.0425,3.0431,3.0498,3.0454,3.0458,3.0461,3.0462,3.0602,3.0603,0,0,0,0,0,0,3.0177,3.0191,3.03,3.0305,3.0235,3.0292,3.0302,3.0328,3.0375,3.0381,3.0348,3.0347,3.0419,3.0426,3.0434,3.0491,3.0459,3.0463,3.0465,3.06,3.0602,3.0603,0,0,0,0,0,0,3.0174,3.0187,3.0297,3.0248,3.0262,3.0296,3.0325,3.033,3.0349,3.0383,3.0389,3.036,3.0418,3.0428,3.0475,3.0494,3.0464,3.0468,3.0599,3.0601,3.0603,3.0608,0,0,0,0,0,0,3.017,3.0186,3.0206,3.0249,3.0265,3.0339,3.0326,3.0332,3.0356,3.0356,3.0397,3.0403,3.0418,3.0469,3.0479,3.0499,3.0471,3.0597,3.06,3.0602,3.0606,3.061,3.0613,0,0,0,0,0,3.0164,3.0204,3.0207,3.022,3.0291,3.034,3.0349,3.0367,3.0358,3.0377,3.0399,3.0401,3.0491,3.0474,3.0486,3.0507,3.0596,3.0599,3.0602,3.0605,3.0609,3.0612,0,0,0,0,0,0,3.0162,3.021,3.0214,3.0269,3.0301,3.0342,3.0367,3.0372,3.0406,3.0404,3.0424,3.0433,3.0478,3.0498,3.0478,3.0554,3.0542,3.0547,3.054,3.0545,3.0548,3.0542,3.0475,0,0,0,0,0,3.0168,3.0206,3.0245,3.029,3.0305,3.0333,3.0355,3.0366,3.0399,3.0412,3.0438,3.0468,3.0502,3.0525,3.0559,3.0609,3.0616,3.0629,3.0632,3.0635,3.0639,3.0663,3.0668,3.0612,3.0612,3.0612,0,0,3.0181,3.0212,3.0234,3.029,3.0316,3.0351,3.0344,3.0383,3.0409,3.0418,3.0463,3.0483,3.0518,3.0566,3.0588,3.0583,3.0656,3.0638,3.064,3.0643,3.0667,3.0672,3.0676,3.0614,3.0614,3.0614,0,0,3.0222,3.025,3.0289,3.0315,3.0354,3.0372,3.0381,3.0421,3.0434,3.0481,3.0487,3.0517,3.0577,3.0601,3.0621,3.0667,3.067,3.0678,3.0694,3.0718,3.0723,3.0726,3.0741,3.0746,3.0682,3.0682,3.0682,0,3.0232,3.0289,3.0308,3.0347,3.0369,3.0379,3.0417,3.0441,3.0488,3.0502,3.0496,3.057,3.0594,3.0646,3.0657,3.0674,3.0683,3.0673,3.0721,3.0725,3.0729,3.0742,3.0748,3.0682,3.0682,3.0682,3.0682,0,3.0298,3.0336,3.0363,3.0408,3.0435,3.0472,3.0496,3.0519,3.0528,3.0545,3.059,3.062,3.0658,3.0672,3.0681,3.0724,3.072,3.0717,3.0705,3.0734,3.0747,3.0753,3.0683,3.0683,3.0683,3.0683,0,0,3.034,3.0396,3.0405,3.0424,3.0467,3.0496,3.0532,3.0571,3.059,3.0621,3.0651,3.07,3.0697,3.0719,3.073,3.0752,3.0783,3.0746,3.0747,3.075,3.083,3.0831,3.0837,3.0785,3.0786,3.0787,3.0826,0,3.0384,3.0452,3.047,3.0526,3.056,3.0568,3.06,3.0628,3.0645,3.0674,3.0692,3.0726,3.0721,3.0734,3.0755,3.0775,3.0799,3.0773,3.081,3.0811,3.08,3.0844,3.0845,3.0881,3.0832,3.0833,3.0833,0,3.0445,3.0478,3.0538,3.0574,3.0588,3.0617,3.0652,3.0681,3.0712,3.0722,3.0746,3.0755,3.079,3.0777,3.0825,3.0806,3.0822,3.0834,3.0836,3.0839,3.0823,3.0846,3.0893,3.0898,3.0842,3.0841,3.0841,0,3.0467,3.0526,3.0569,3.0586,3.0629,3.0648,3.0667,3.0697,3.0718,3.0748,3.0761,3.0795,3.0813,3.0838,3.0854,3.0843,3.0899,3.0888,3.0907,3.0906,3.0918,3.0916,3.0966,3.0931,3.0931,3.0931,3.093,0,3.0513,3.0549,3.0579,3.0605,3.0644,3.0663,3.0701,3.0719,3.0745,3.0773,3.0783,3.0808,3.0829,3.0856,3.0869,3.0905,3.0914,3.0921,3.0924,3.092,3.0918,3.093,3.0927,3.0932,3.0932,3.0931,3.0931,0,3.0544,3.0566,3.0613,3.065,3.066,3.0686,3.0717,3.0741,3.0758,3.0793,3.0802,3.0828,3.086,3.0879,3.092,3.0929,3.0968,3.097,3.0958,3.0959,3.0976,3.0973,3.1033,3.1041,3.1002,3.1002,3.1003,0,3.0571,3.0599,3.0638,3.0658,3.0677,3.0709,3.0731,3.075,3.0771,3.0807,3.0826,3.0859,3.0887,3.0939,3.096,3.099,3.0992,3.1011,3.0997,3.0991,3.099,3.0987,3.0989,3.1013,3.1013,3.1014,3.1014,0,3.0616,3.0625,3.0657,3.0692,3.0717,3.0745,3.0772,3.0788,3.081,3.0834,3.0868,3.0889,3.0931,3.0963,3.0995,3.1012,3.1015,3.1018,3.1024,3.1019,3.101,3.1013,3.0963,3.1016,3.1016,3.1016,3.1016,3.1016,3.0645,3.0669,3.07,3.0733,3.0756,3.0781,3.0805,3.0824,3.0854,3.089,3.0899,3.0934,3.0961,3.1004,3.1022,3.1048,3.1044,3.1053,3.1055,3.1056,3.1055,3.1007,3.1054,3.1054,3.1053,3.1053,3.1053,0,3.0688,3.0709,3.074,3.0778,3.0803,3.0806,3.0836,3.0857,3.0888,3.0914,3.0941,3.0978,3.1009,3.1032,3.1062,3.1079,3.1081,3.1086,3.1084,3.1087,3.1058,3.1049,3.1083,3.1083,3.1083,3.1083,3.1083,3.1083,3.0714,3.0754,3.0766,3.0816,3.0835,3.0871,3.0887,3.0909,3.093,3.0971,3.0997,3.1012,3.1036,3.1068,3.1095,3.1101,3.1111,3.1115,3.1121,3.1093,3.109,3.1086,3.1078,3.1118,3.1118,3.1148,3.1148,3.1148]}]]